Tracking 19419 objects as of 17-Dec-2018
HD Live streaming from Space Station
objects crossing your sky now

OPS 9381 (GGTS)

Track OPS 9381 (GGTS) now!
OPS 9381 (GGTS) is classified as:


NORAD ID: 2207
Int'l Code: 1966-053A
Perigee: 33,641.6 km
Apogee: 33,878.6 km
Inclination: 3.8 °
Period: 1,333.5 minutes
Semi major axis: 40131 km
RCS: 0.8912 m2 (medium)
Launch date: June 16, 1966
Source: United States (US)
Launch site: AIR FORCE EASTERN TEST RANGE (AFETR)
aabbcc
Your satellite tracking list
Your tracking list is empty




NASA's NSSDC Master Catalog

Two Line Element Set (TLE):
1  2207U 66053A   18350.58660942 -.00000103 +00000-0 +00000-0 0  9993
2  2207 003.7699 058.7883 0029535 177.3571 321.1143 01.07989513206377
Source of the keplerian elements: AFSPC